Regional Weather Roundup
Issued by NWS

Home | Current Version | Previous Version | Graphics & Text | Print | Product List | Glossary On
Versions: 1 2 3 4 5 6 7 8 9 10 11 12 13 14 15 16 17 18 19 20 21 22 23 24 25 26 27 28 29 30 31 32 33 34 35 36 37 38 39 40 41 42 43 44 45 46 47 48 49 50
593
ASUS44 KJAN 230303
RWRMS

MISSISSIPPI HOURLY WEATHER ROUNDUP
NATIONAL WEATHER SERVICE JACKSON MS
1000 PM CDT WED OCT 22 2014

NOTE: "FAIR: INDICATES FEW OR NO CLOUDS BELOW 12,000 FEET WITH NO
SIGNIFICANT WEATHER AND/OR OBSTRUCTIONS TO VISIBILITY.

MSZ001>002-007>008-010>013-018>021-025>028-034>036-230400-
NORTHWEST MISSISSIPPI

CITY           SKY/WX    TMP DP  RH WIND       PRES   REMARKS
CLARKSDALE     FAIR      55  46  71 NE3       30.18R
CLEVELAND      FAIR      53  47  81 NE5       30.17R
GREENWOOD      CLEAR     51  47  86 NE3       30.16R
GREENVILLE     CLEAR     54  45  71 NE5       30.15R
GRENADA          N/A    N/A N/A N/A MISG        N/A
OLIVE BRANCH   CLEAR     52  48  87 NE5       30.19S
OXFORD         FAIR      45  43  93 NE5       30.19S
TUNICA         CLEAR     50  45  81 NE5       30.19R
$$

MSZ003>006-009-014>017-022>024-029>033-037>039-230400-
NORTHEAST MISSISSIPPI

CITY           SKY/WX    TMP DP  RH WIND       PRES   REMARKS
COLUMBUS AFB   CLEAR     49  47  92 CALM      30.16S
CORINTH        FAIR      48  45  87 CALM      30.19S
GOLDN TRIANGLE CLEAR     50  43  76 NE7       30.16S
STARKVILLE     FAIR      48  45  87 CALM      30.16R
TUPELO         CLEAR     49  43  80 NE7       30.18S
$$

MSZ040-058-230400-
CENTRAL MISSISSIPPI

CITY           SKY/WX    TMP DP  RH WIND       PRES   REMARKS
JACKSON INTL   CLEAR     59  46  62 NE8       30.14R
JACKSON HAWKNS CLEAR     59  46  62 NE5       30.13R
MERIDIAN KEY   CLEAR     49  46  90 CALM      30.13S
MERIDIAN NAS   CLEAR     55  44  66 NE5       30.14R
VICKSBURG      CLEAR     57  48  72 NE8       30.14R
$$

MSZ059>079-230400-
SOUTH MISSISSIPPI

CITY           SKY/WX    TMP DP  RH WIND       PRES   REMARKS
BROOKHAVEN     FAIR      59  48  67 NE6       30.13R
COLUMBIA         N/A    N/A N/A N/A MISG        N/A
HATTIESBURG    CLEAR     61  47  59 N5        30.12R
MCCOMB         CLEAR     61  50  67 N5        30.11R
NATCHEZ        CLEAR     55  50  82 CALM      30.13R
PINE BELT      CLEAR     55  45  67 N5        30.13R
$$

MSZ080>082-230400-
COASTAL MISSISSIPPI

CITY           SKY/WX    TMP DP  RH WIND       PRES   REMARKS
BILOXI         CLEAR     63  50  62 NE8       30.08R
PASCAGOULA     CLEAR     56  48  74 NE3       30.08R
GULFPORT       CLEAR     63  49  60 NE6       30.08R
$$



USA.gov is the U.S. government's official web portal to all federal, state and local government web resources and services.